Flag for U.S.A. Weather past 2 weeks in Orlando, Florida, U.S.A.

Now
81 °F

Clear.


Feels Like: 86 °F
Forecast: 76 / 90 °F
Wind: 3 mph from Southeast

Location: Orlando Executive Airport

Current Time: Aug 30, 2014 at 11:17:11 PM

Latest Report: Aug 30, 2014 at 10:53 PM


Visibility: 10 mi

Pressure: 30.14 "Hg

Humidity: 79%

Dew point: 74 °F

Location of OrlandoLocation

Historic Weather in Orlando — Graph

°F

Orlando temperature yesterday

Maximum temperature yesterday: 91 °F (at 11:53 AM)
Minimum temperature yesterday: 75 °F (at 5:53 PM)
Average temperature yesterday: 80 °F

Past Weeks' High & Low Weather Summary

 TemperatureHumidityPressure
High97 °F (Aug 22, 4:53 PM)97% (Aug 16, 4:53 AM)30.16 "Hg (Aug 16, 4:53 AM)
Low74 °F (Aug 17, 6:53 AM)43% (Aug 22, 4:53 PM)29.78 "Hg (Aug 24, 3:53 PM)
Average84 °F72%30.01 "Hg
* Reported Aug 15 9:53 PM — Aug 30 9:53 PM, Orlando, Weather by CustomWeather, © 2014

Note: Actual official high and low records may vary slightly from our data, if they occured in-between our weather recording intervals... More about our weather records

Advertising

Orlando weather history for previous 24 hours

 ConditionsComfort  
Time TempWeatherWind HumidityBarometerVisibility
9:53 PM
Aug 30
82 °FClear.6 mph77%30.13 "Hg10 mi
8:53 PM83 °FClear.8 mph72%30.10 "Hg10 mi
7:53 PM85 °FSunny.8 mph68%30.08 "Hg10 mi
6:53 PM88 °FPartly sunny.14 mph59%30.07 "Hg10 mi
5:53 PM90 °FPartly sunny.14 mph56%30.06 "Hg10 mi
4:53 PM91 °FBroken clouds.8 mph56%30.06 "Hg10 mi
3:53 PM92 °FPartly sunny.6 mph54%30.07 "Hg10 mi
2:53 PM94 °FScattered clouds.N/A49%30.09 "Hg10 mi
1:53 PM91 °FPartly sunny.5 mph57%30.11 "Hg10 mi
12:53 PM90 °FSunny.3 mph59%30.13 "Hg10 mi
11:53 AM88 °FScattered clouds.8 mph65%30.14 "Hg10 mi
10:53 AM88 °FSunny.6 mph65%30.16 "Hg10 mi
9:53 AM84 °FSunny.7 mph72%30.16 "Hg10 mi
8:53 AM80 °FSunny.3 mph81%30.16 "Hg10 mi
7:53 AM76 °FClear.3 mph91%30.16 "Hg10 mi
6:53 AM75 °FClear.3 mph94%30.14 "Hg10 mi
5:53 AM75 °FClear.No wind94%30.13 "Hg10 mi
4:53 AM75 °FClear.No wind94%30.11 "Hg10 mi
3:53 AM76 °FClear.No wind91%30.11 "Hg10 mi
2:53 AM76 °FClear.No wind91%30.11 "Hg10 mi
1:53 AM76 °FClear.No wind91%30.11 "Hg10 mi
12:53 AM76 °FClear.No wind91%30.09 "Hg10 mi
11:53 PM
Aug 29
76 °FClear.5 mph91%30.11 "Hg10 mi
Weather by CustomWeather, © 2014

See weather overviewHow to use our weather pages